Tracking 31011 objects as of 11-Jul-2025
HD Live streaming from Space Station
objects crossing your sky now

FENGYUN 1C DEB

Track FENGYUN 1C DEB now!
10-day predictions


NORAD ID: 30356
Int'l Code: 1999-025ABT
Perigee: 819.2 km
Apogee: 896.0 km
Inclination: 98.7 °
Period: 101.9 minutes
Semi major axis: 7228 km
RCS: 0.038 m2 (small)
Launch date: May 10, 1999
Source: People's Republic of China (PRC)
Launch site: Taiyaun Space Center, China (TSC)

Note: This is SATELLITE DEBRIS
Your satellite tracking list
Your tracking list is empty




NASA's NSSDC Master Catalog

Two Line Element Set (TLE):
1 30356U 99025ABT 25191.44812087  .00000655  00000-0  37209-3 0  9994
2 30356  98.6724 191.4658 0053085  12.7080 144.4505 14.12605036948280
Source of the keplerian elements: AFSPC